Date String (YYYY-MM-DD hh:mm:ss) UTC,Instrument flags,absolute air pressure of the measurement (hPa),sample flow rate (lpm),inlet stack bypass flow (lpm),air temperature of the measurement (°C),ambient temperature measured by the external sensor (°C),aerosol sample conditioner tube jacket temperature (°C),OPC LED temperature (°C),internal box temperature (°C),relative humidity of the measurement (%),span deviation,mass concentration of particles derived from Lorenz-Mie calculation of OPC scattering (μg/m³),mass concentration of particles derived from Lorenz-Mie calculation of OPC scattering (μg/m³),mass concentration of particles derived from Lorenz-Mie calculation of OPC scattering (μg/m³)
DateTimeUTC,F1_M11,P_M11,Q1_M11,Q2_M11,T1_M11,T2_M11,T3_M11,T4_M11,T5_M11,U1_M11,ZSPAN_M11,X0_M11,X2_M11,X1_M11
2023-09-18 22:00:00,SystemResetWarning,0828.4,4.99,000.00,027.7,026.5,000.0,035.9,029.4,16.6,0000.0,0006.93,0003.09,0002.45
2023-09-18 22:01:00,SystemResetWarning,0828.3,5.01,000.00,027.6,024.8,000.0,035.8,028.9,16.9,0000.0,0006.95,0003.09,0002.46
2023-09-18 22:02:00,SystemResetWarning,0828.3,5.00,000.00,027.5,023.9,000.0,035.8,028.8,16.4,0000.0,0007.27,0003.10,0002.47
2023-09-18 22:03:00,SystemResetWarning,0828.3,5.01,000.00,027.5,024.1,000.0,035.8,028.8,16.2,0000.0,0007.48,0003.07,0002.49
2023-09-18 22:04:00,SystemResetWarning,0828.3,5.01,000.00,027.4,024.5,000.0,035.8,028.8,16.3,0000.0,0006.71,0003.01,0002.49
2023-09-18 22:05:00,SystemResetWarning,0828.3,4.99,000.00,027.4,024.9,000.0,035.8,028.9,16.4,0000.0,0007.51,0002.98,0002.52
2023-09-18 22:06:00,SystemResetWarning,0828.3,5.00,000.00,027.4,025.4,000.0,035.8,029.0,16.6,0000.0,0007.63,0002.99,0002.52
2023-09-18 22:07:00,SystemResetWarning,0828.4,5.01,000.00,027.5,025.8,000.0,035.8,029.1,16.9,0000.0,0007.65,0003.02,0002.52
2023-09-18 22:08:00,SystemResetWarning,0828.3,4.98,000.00,027.5,026.1,000.0,035.8,029.2,16.7,0000.0,0006.85,0003.02,0002.52
2023-09-18 22:09:00,SystemResetWarning,0828.4,4.99,000.00,027.6,026.3,000.0,035.9,029.3,16.2,0000.0,0006.73,0002.99,0002.52
2023-09-18 22:10:00,SystemResetWarning,0828.4,5.00,000.00,027.6,026.6,000.0,035.9,029.4,16.3,0000.0,0006.71,0002.96,0002.51
2023-09-18 22:11:00,SystemResetWarning,0828.4,5.00,000.00,027.7,026.6,000.0,035.9,029.4,16.4,0000.0,0006.65,0002.94,0002.51
2023-09-18 22:12:00,SystemResetWarning,0828.3,4.99,000.00,027.6,025.2,000.0,035.9,029.0,16.2,0000.0,0006.70,0002.97,0002.52
2023-09-18 22:13:00,SystemResetWarning,0828.3,5.01,000.00,027.5,024.0,000.0,035.8,028.7,15.9,0000.0,0006.89,0002.97,0002.51
2023-09-18 22:14:00,SystemResetWarning,0828.4,5.01,000.00,027.5,024.1,000.0,035.7,028.7,16.3,0000.0,0007.20,0002.93,0002.50
2023-09-18 22:15:00,SystemResetWarning,0828.3,5.00,000.00,027.4,024.4,000.0,035.8,028.8,16.4,0000.0,0007.35,0002.93,0002.49
2023-09-18 22:16:00,SystemResetWarning,0828.3,5.00,000.00,027.4,024.8,000.0,035.8,028.9,16.6,0000.0,0006.92,0002.94,0002.50
2023-09-18 22:17:00,SystemResetWarning,0828.4,5.00,000.00,027.4,025.2,000.0,035.8,029.0,16.9,0000.0,0006.41,0002.92,0002.49
2023-09-18 22:18:00,SystemResetWarning,0828.3,4.99,000.00,027.4,025.6,000.0,035.8,029.1,17.0,0000.0,0006.42,0002.93,0002.50
2023-09-18 22:19:00,SystemResetWarning,0828.4,5.00,000.00,027.5,025.9,000.0,035.8,029.2,17.3,0000.0,0006.50,0002.96,0002.50
2023-09-18 22:20:00,SystemResetWarning,0828.4,5.00,000.00,027.5,026.2,000.0,035.8,029.3,16.1,0000.0,0006.53,0002.97,0002.51
2023-09-18 22:21:00,SystemResetWarning,0828.4,5.01,000.00,027.6,026.5,000.0,035.9,029.3,15.9,0000.0,0006.68,0003.04,0002.53
2023-09-18 22:22:00,SystemResetWarning,0828.4,4.99,000.00,027.7,026.7,000.0,035.9,029.4,16.0,0000.0,0007.03,0003.10,0002.54
2023-09-18 22:23:00,SystemResetWarning,0828.4,4.98,000.00,027.7,026.4,000.0,035.9,029.4,16.4,0000.0,0007.06,0003.11,0002.53
2023-09-18 22:24:00,SystemResetWarning,0828.4,5.00,000.00,027.6,024.9,000.0,035.9,028.8,16.8,0000.0,0006.73,0003.12,0002.54
2023-09-18 22:25:00,SystemResetWarning,0828.4,5.01,000.00,027.5,023.9,000.0,035.8,028.7,17.5,0000.0,0006.02,0003.13,0002.55
2023-09-18 22:26:00,SystemResetWarning,0828.4,5.01,000.00,027.4,024.2,000.0,035.8,028.7,17.5,0000.0,0005.12,0003.14,0002.56
2023-09-18 22:27:00,SystemResetWarning,0828.4,4.99,000.00,027.4,024.5,000.0,035.8,028.8,16.5,0000.0,0004.95,0003.13,0002.55
2023-09-18 22:28:00,SystemResetWarning,0828.4,5.00,000.00,027.4,024.9,000.0,035.8,028.9,16.7,0000.0,0005.04,0003.16,0002.56
2023-09-18 22:29:00,SystemResetWarning,0828.4,5.01,000.00,027.4,025.3,000.0,035.8,029.0,16.6,0000.0,0005.13,0003.18,0002.56
2023-09-18 22:30:00,SystemResetWarning,0828.4,4.99,000.00,027.5,025.7,000.0,035.8,029.1,17.9,0000.0,0005.21,0003.20,0002.55
2023-09-18 22:31:00,SystemResetWarning,0828.4,5.00,000.00,027.5,026.0,000.0,035.8,029.2,16.4,0000.0,0005.30,0003.22,0002.56
2023-09-18 22:32:00,SystemResetWarning,0828.4,5.00,000.00,027.6,026.3,000.0,035.9,029.3,16.4,0000.0,0005.35,0003.21,0002.56
2023-09-18 22:33:00,SystemResetWarning,0828.4,5.00,000.00,027.6,026.5,000.0,035.9,029.4,16.5,0000.0,0005.12,0003.21,0002.56
2023-09-18 22:34:00,SystemResetWarning,0828.4,5.00,000.00,027.7,026.7,000.0,035.9,029.4,16.3,0000.0,0005.03,0003.20,0002.57
2023-09-18 22:35:00,SystemResetWarning,0828.4,5.00,000.00,027.7,026.7,000.0,035.9,029.5,16.2,0000.0,0004.99,0003.20,0002.57
2023-09-18 22:36:00,SystemResetWarning,0828.4,4.99,000.00,027.7,025.3,000.0,035.9,029.0,16.0,0000.0,0004.86,0003.18,0002.57
2023-09-18 22:37:00,SystemResetWarning,0828.4,5.00,000.00,027.5,024.0,000.0,035.8,028.8,16.3,0000.0,0004.85,0003.18,0002.56
2023-09-18 22:38:00,SystemResetWarning,0828.4,5.00,000.00,027.5,024.0,000.0,035.8,028.8,17.0,0000.0,0004.92,0003.18,0002.56
2023-09-18 22:39:00,SystemResetWarning,0828.4,5.01,000.00,027.4,024.4,000.0,035.8,028.8,17.4,0000.0,0005.95,0003.19,0002.57
2023-09-18 22:40:00,SystemResetWarning,0828.4,5.00,000.00,027.4,024.7,000.0,035.8,028.9,17.2,0000.0,0006.37,0003.17,0002.57
2023-09-18 22:41:00,SystemResetWarning,0828.4,5.00,000.00,027.4,025.2,000.0,035.8,029.0,17.4,0000.0,0006.43,0003.17,0002.59
2023-09-18 22:42:00,SystemResetWarning,0828.4,5.00,000.00,027.5,025.6,000.0,035.8,029.1,17.3,0000.0,0006.64,0003.17,0002.60
2023-09-18 22:43:00,SystemResetWarning,0828.4,5.01,000.00,027.5,025.9,000.0,035.8,029.2,17.9,0000.0,0006.73,0003.17,0002.60
2023-09-18 22:44:00,SystemResetWarning,0828.4,4.99,000.00,027.6,026.2,000.0,035.9,029.3,17.1,0000.0,0006.62,0003.16,0002.60
2023-09-18 22:45:00,SystemResetWarning,0828.4,4.99,000.00,027.6,026.4,000.0,035.9,029.4,16.5,0000.0,0006.45,0003.12,0002.58
2023-09-18 22:46:00,SystemResetWarning,0828.4,4.99,000.00,027.7,026.6,000.0,035.9,029.4,16.2,0000.0,0006.55,0003.14,0002.59
2023-09-18 22:47:00,SystemResetWarning,0828.4,5.00,000.00,027.7,026.8,000.0,036.0,029.5,16.7,0000.0,0006.65,0003.15,0002.58
2023-09-18 22:48:00,SystemResetWarning,0828.4,5.00,000.00,027.7,025.7,000.0,035.9,029.2,17.1,0000.0,0006.70,0003.18,0002.61
2023-09-18 22:49:00,SystemResetWarning,0828.4,5.00,000.00,027.6,024.2,000.0,035.9,028.7,17.3,0000.0,0006.74,0003.19,0002.61
2023-09-18 22:50:00,SystemResetWarning,0828.3,5.00,000.00,027.5,024.0,000.0,035.8,028.8,17.1,0000.0,0006.04,0003.20,0002.62
2023-09-18 22:51:00,SystemResetWarning,0828.4,5.00,000.00,027.4,024.3,000.0,035.8,028.8,17.5,0000.0,0006.73,0003.21,0002.63
2023-09-18 22:52:00,SystemResetWarning,0828.4,5.00,000.00,027.4,024.6,000.0,035.8,028.9,17.2,0000.0,0007.52,0003.20,0002.63
2023-09-18 22:53:00,SystemResetWarning,0828.4,5.00,000.00,027.4,025.1,000.0,035.8,029.0,16.5,0000.0,0007.39,0003.19,0002.63
2023-09-18 22:54:00,SystemResetWarning,0828.4,5.01,000.00,027.5,025.4,000.0,035.8,029.1,17.3,0000.0,0007.64,0003.20,0002.62
2023-09-18 22:55:00,SystemResetWarning,0828.4,5.00,000.00,027.5,025.8,000.0,035.8,029.2,17.2,0000.0,0007.81,0003.23,0002.62
2023-09-18 22:56:00,SystemResetWarning,0828.4,5.00,000.00,027.5,026.1,000.0,035.9,029.3,16.7,0000.0,0007.81,0003.23,0002.63
2023-09-18 22:57:00,SystemResetWarning,0828.4,4.99,000.00,027.6,026.3,000.0,035.9,029.3,16.5,0000.0,0007.79,0003.24,0002.63
2023-09-18 22:58:00,SystemResetWarning,0828.4,5.00,000.00,027.7,026.6,000.0,035.9,029.4,17.2,0000.0,0007.80,0003.24,0002.63
2023-09-18 22:59:00,SystemResetWarning,0828.4,5.00,000.00,027.7,026.8,000.0,035.9,029.5,17.4,0000.0,0007.90,0003.20,0002.61
